Weather History for KTYR - January, 2014

Change the Weather History Date:

Monday, January 20, 2014

  Actual Average Record
Temperature  
Mean Temperature 56 °F 46 °F  
Max Temperature 73 °F 56 °F 80 °F (1986)
Min Temperature 39 °F 37 °F 9 °F (1985)
Degree Days  
Heating Degree Days 9 19  
Month to date heating degree days 377 380  
Since 1 July heating degree days 1337 1281  
Cooling Degree Days 0 0  
Month to date cooling degree days 0 0  
Year to date cooling degree days 0 0  
Growing Degree Days 6 (Base 50)    
Moisture  
Dew Point 37 °F    
Average Humidity 50    
Maximum Humidity 64    
Minimum Humidity 35    
Precipitation  
Precipitation 0.00 in 0.09 in 1.66 in (1979)
Month to date precipitation 0.70 1.95  
Year to date precipitation 0.70 1.95  
Snow  
Snow 0.00 in - - ()
Month to date snowfall 0.0  
Since 1 July snowfall T  
Snow Depth 0.00 in    
Sea Level Pressure  
Sea Level Pressure 29.99 in    
Wind  
Wind Speed 10 mph (SW)    
Max Wind Speed 21 mph    
Max Gust Speed 28 mph    
Visibility 10 miles    
Events      
T = Trace of Precipitation, MM = Missing Value Source: NWS Daily Summary

Daily Weather History Graph

Daily Weather History Graph

Search for Another Location

Airport or City:

Trip Planner

Search our weather history database for the weather conditions in past years. The results will help you decide how hot, cold, wet, or windy it might be!

Date:

Astronomy

Jan. 20, 2014 Rise Set
Actual Time 7:21 AM CST 5:43 PM CST
Civil Twilight 6:55 AM CST 6:10 PM CST
Nautical Twilight 6:25 AM CST 6:40 PM CST
Astronomical Twilight 5:56 AM CST 7:09 PM CST
Moon 10:01 PM CST (1/20) 9:38 AM CST (1/20)
Length of Visible Light 11h 14m
Length of Day
10h 22m
Waning Gibbous, 82% of the Moon is Illuminated
Jan 20
Waning Gibbous
Jan 23
Last Quarter
Jan 30
New
Feb 6
First Quarter
Feb 14
Full

Hourly Weather History & Observations

Time (CST) Temp. Windchill Dew Point Humidity Pressure Visibility Wind Dir Wind Speed Gust Speed Precip Events Conditions
12:53 AM 39.9 °F 34.5 °F 27.0 °F 60% 30.07 in 10.0 mi South 8.1 mph - N/A   Clear
1:53 AM 43.0 °F 38.2 °F 27.0 °F 53% 30.05 in 10.0 mi South 8.1 mph - N/A   Clear
2:53 AM 39.9 °F 33.9 °F 28.0 °F 63% 30.04 in 10.0 mi South 9.2 mph - N/A   Clear
3:53 AM 41.0 °F 35.2 °F 27.0 °F 57% 30.02 in 10.0 mi South 9.2 mph - N/A   Clear
4:53 AM 39.9 °F 33.9 °F 28.0 °F 63% 30.01 in 10.0 mi South 9.2 mph - N/A   Clear
5:53 AM 39.9 °F 33.9 °F 28.0 °F 63% 30.00 in 10.0 mi South 9.2 mph - N/A   Clear
6:53 AM 41.0 °F 34.7 °F 28.9 °F 62% 29.99 in 10.0 mi South 10.4 mph - N/A   Clear
7:53 AM 43.0 °F 38.2 °F 30.9 °F 62% 30.00 in 10.0 mi SSE 8.1 mph - N/A   Clear
8:53 AM 50.0 °F - 36.0 °F 59% 29.99 in 10.0 mi South 9.2 mph - N/A   Clear
9:53 AM 57.0 °F - 43.0 °F 59% 30.00 in 10.0 mi SSW 13.8 mph - N/A   Clear
10:53 AM 63.0 °F - 46.0 °F 54% 29.99 in 10.0 mi SSW 17.3 mph - N/A   Clear
11:53 AM 66.0 °F - 46.9 °F 50% 29.95 in 10.0 mi SW 16.1 mph 21.9 mph N/A   Clear
12:53 PM 69.1 °F - 46.9 °F 45% 29.90 in 10.0 mi SW 13.8 mph - N/A   Clear
1:53 PM 70.0 °F - 46.9 °F 44% 29.87 in 10.0 mi SW 11.5 mph - N/A   Clear
2:53 PM 72.0 °F - 46.9 °F 41% 29.86 in 10.0 mi SSW 9.2 mph 17.3 mph N/A   Clear
3:53 PM 73.0 °F - 46.9 °F 39% 29.86 in 10.0 mi SW 9.2 mph - N/A   Clear
4:53 PM 72.0 °F - 46.0 °F 40% 29.89 in 10.0 mi WSW 6.9 mph - N/A   Clear
5:53 PM 66.0 °F - 45.0 °F 47% 29.92 in 10.0 mi NNW 3.5 mph - N/A   Clear
6:53 PM 62.1 °F - 44.1 °F 52% 29.96 in 10.0 mi NNW 5.8 mph - N/A   Clear
7:53 PM 63.0 °F - 37.9 °F 40% 30.01 in 10.0 mi NNW 12.7 mph - N/A   Clear
8:53 PM 60.1 °F - 35.1 °F 39% 30.04 in 10.0 mi North 8.1 mph - N/A   Clear
9:53 PM 59.0 °F - 32.0 °F 36% 30.07 in 10.0 mi North 15.0 mph 24.2 mph N/A   Clear
10:53 PM 55.9 °F - 28.0 °F 34% 30.11 in 10.0 mi North 12.7 mph 20.7 mph N/A   Clear
11:53 PM 55.0 °F - 26.1 °F 33% 30.13 in 10.0 mi North 15.0 mph 25.3 mph N/A   Clear